Wind_Speed
15 14 14 15 17 18 20 21 22 23 24 25 25 25 24 24 24 23 23 22 23 23 22 22 22 21 21 22 25 27 27 27 27 27 28 28 26 25 23 22 21 21 21
11 13 14 16 18 20 22 23 23 24 25 25 25 25 25 24 24 24 23 22 22 22 22 21 21 19 19 19 21 24 25 26 27 28 29 29 28 28 26 25 24 23 22
12 14 16 19 20 22 23 24 24 24 24 24 24 24 24 24 23 23 23 22 22 22 22 21 21 20 19 19 19 19 22 24 25 28 30 30 30 30 29 28 28 27 25
14 16 18 19 20 21 21 21 22 22 23 23 23 22 22 22 22 22 22 22 22 22 22 22 22 21 20 19 19 19 20 21 23 26 28 30 31 31 32 31 31 30 28
16 18 20 20 19 19 18 18 19 19 20 20 20 21 21 21 21 20 21 21 22 22 22 22 22 21 21 20 20 20 20 20 21 23 27 30 32 32 33 34 34 33 31
16 18 18 17 17 16 16 15 16 17 17 18 19 20 20 20 21 21 21 21 22 22 22 22 23 22 22 21 21 21 20 21 21 21 21 25 30 32 33 34 35 35 35
13 14 14 15 15 15 15 15 15 17 18 19 20 20 20 21 21 21 21 21 21 22 22 22 22 23 23 22 22 21 21 21 22 22 22 23 26 28 30 33 35 36 36
12 13 14 15 15 16 15 15 16 17 18 18 19 19 20 21 21 21 21 21 21 22 22 22 22 23 23 23 22 22 22 22 22 23 24 24 24 26 28 30 32 34 36
14 15 16 16 16 16 16 16 17 17 18 18 19 19 20 21 22 22 21 21 21 21 21 22 22 22 22 23 23 23 22 22 22 23 24 24 24 25 27 28 30 32 35
15 16 16 16 16 16 16 17 17 17 18 18 19 19 19 20 20 21 20 21 21 21 21 21 22 21 22 22 22 22 22 22 23 23 24 24 25 26 27 28 29 30 32
15 16 16 16 16 16 16 17 17 17 18 18 18 18 18 19 19 19 20 20 21 21 22 22 22 22 22 22 22 22 22 22 22 23 24 24 25 26 27 28 29 30 30
17 16 16 15 15 16 16 16 16 16 16 16 16 17 17 17 18 19 19 19 20 21 22 22 22 22 21 22 22 22 22 22 22 23 24 24 25 25 26 27 28 28 29
18 17 16 16 15 15 14 14 14 14 14 14 14 14 15 15 16 16 17 18 18 19 20 21 21 22 22 21 21 22 22 22 23 23 24 24 25 26 26 27 28 29 30
18 18 17 16 15 14 14 13 13 12 12 12 12 12 12 12 13 13 14 15 16 16 17 18 19 20 20 20 21 21 22 22 22 22 22 23 24 25 26 27 27 28 29
18 18 17 16 15 14 13 13 12 11 11 11 11 10 10 10 10 10 10 10 11 11 13 14 15 17 18 19 19 20 20 21 21 22 22 22 23 24 25 26 26 27 29
18 18 17 16 15 14 14 13 12 12 12 11 11 10 9 9 8 7 7 6 6 6 8 10 11 13 14 15 16 17 18 19 19 20 20 21 22 22 23 24 26 27 28
18 18 18 17 17 16 15 15 14 14 13 13 12 11 11 10 9 9 8 6 4 3 4 5 6 8 9 10 12 13 14 15 17 18 18 19 20 21 22 24 25 26 27
18 18 18 18 18 18 17 17 16 15 15 15 14 13 13 13 12 11 10 9 7 6 5 4 3 3 3 5 6 8 9 11 13 14 15 17 18 20 21 23 24 26 27
18 18 18 18 18 18 18 18 18 17 17 17 16 16 15 15 15 15 14 12 11 9 9 8 7 7 5 4 4 5 7 8 9 11 12 14 16 18 20 21 23 25 26
17 18 18 18 18 19 19 19 18 18 18 18 18 18 17 17 17 16 16 15 14 13 12 11 10 9 9 8 7 7 8 8 9 10 11 13 15 16 18 20 21 23 25
16 17 17 17 18 18 19 19 18 19 19 19 19 19 19 18 18 18 18 18 17 16 15 14 13 13 12 11 11 10 10 10 11 11 12 13 14 16 17 19 21 22 24
15 15 16 16 17 18 19 19 18 19 19 19 20 20 19 19 19 18 18 18 18 18 18 17 16 16 15 15 14 13 13 12 12 13 14 14 15 15 16 18 18 19 20
13 14 14 15 16 16 17 18 18 18 18 18 19 19 19 19 19 19 18 18 18 18 18 18 18 18 17 17 16 16 16 16 15 15 16 16 16 16 16 17 17 18 19
11 12 13 13 14 15 15 16 17 17 17 17 17 17 17 18 18 18 18 18 18 18 18 18 18 18 18 17 17 17 17 17 17 18 18 18 18 18 17 18 19 19 20
9 10 11 12 12 13 14 14 15 15 16 16 16 16 16 16 16 17 17 17 17 17 17 17 17 17 17 18 18 18 18 19 19 19 20 20 20 20 20 20 21 21 21
7 8 9 10 11 11 12 13 14 14 14 15 15 15 15 15 15 15 15 16 16 16 16 16 16 17 17 17 18 18 18 19 20 20 21 21 22 22 23 23 23 23 24
Wind_Direction
242 249 258 268 274 279 281 283 285 287 286 285 284 284 284 284 284 283 280 279 278 276 274 273 271 272 264 253 245 243 243 240 238 239 238 235 234 235 235 235 234 235 235
248 258 268 277 281 283 282 283 284 285 284 282 282 282 282 283 283 282 281 278 277 274 273 272 268 268 268 263 254 246 244 241 239 237 237 235 235 235 235 237 237 237 237
266 273 277 280 284 287 285 283 282 282 282 281 281 281 281 282 282 280 279 278 276 273 271 270 266 265 264 262 259 251 245 242 241 238 238 236 236 234 235 237 239 239 239
273 275 279 283 286 288 287 284 282 282 280 279 279 279 281 282 281 280 277 275 273 271 269 267 266 264 262 261 260 256 252 248 247 241 238 237 236 235 236 238 238 240 240
276 279 284 286 290 291 287 285 283 282 281 278 278 279 281 280 279 278 277 274 272 269 267 266 265 263 261 259 257 258 256 253 252 247 242 240 236 235 238 238 239 240 241
284 286 290 291 294 292 290 286 283 281 281 281 280 280 280 279 278 277 276 274 272 268 266 265 263 262 261 260 258 257 255 254 253 254 250 243 238 239 239 238 240 242 243
297 297 298 297 298 297 295 292 288 282 280 280 279 279 279 279 279 277 276 274 272 269 266 264 263 261 261 260 258 257 255 254 253 253 254 252 247 244 242 241 243 244 245
308 305 303 302 303 300 296 294 292 288 282 281 279 278 279 279 280 279 276 274 272 269 266 264 263 261 259 259 258 258 257 255 253 252 252 252 252 248 245 245 245 245 245
310 307 305 304 304 301 294 291 289 288 285 282 280 279 278 278 278 278 276 274 271 268 266 264 262 261 259 258 257 257 257 256 255 255 254 253 252 249 247 248 249 247 246
313 310 307 304 302 298 295 292 289 287 286 284 282 279 278 278 277 276 274 272 270 267 266 265 262 260 258 257 257 257 257 256 257 257 257 255 254 253 251 250 251 252 251
322 317 312 308 305 302 300 296 293 291 289 286 283 280 278 278 277 275 273 271 269 266 265 264 262 261 258 256 257 258 258 257 257 257 257 257 256 254 254 254 254 253 253
330 326 321 317 314 311 307 303 300 298 294 290 287 284 282 280 277 275 272 271 270 266 263 262 261 260 259 257 257 258 259 260 260 259 259 259 258 257 256 257 257 257 256
340 337 333 329 326 322 319 315 312 308 303 300 297 294 289 285 280 276 274 274 271 267 263 261 260 258 257 257 258 259 260 261 261 262 261 261 260 260 260 259 259 259 259
350 348 345 342 339 336 332 329 326 321 317 313 310 306 302 298 291 284 278 276 273 269 263 260 258 257 258 258 258 259 260 261 262 263 264 264 264 263 263 263 263 262 262
358 358 357 356 354 352 349 346 344 341 337 335 331 326 323 318 314 306 294 287 278 270 264 261 258 257 258 259 259 260 261 263 265 265 266 267 267 266 266 266 265 265 265
6 7 8 8 7 7 6 5 4 3 1 0 360 358 356 353 348 340 327 312 299 282 270 264 261 260 262 261 261 263 264 265 266 266 268 269 269 269 268 267 267 267 267
17 19 20 20 21 21 21 21 20 20 20 20 19 18 18 18 17 15 10 6 358 335 308 288 275 270 267 264 265 268 269 269 268 270 271 272 273 273 272 272 272 272 271
24 26 26 27 29 30 31 31 32 32 32 32 32 33 34 34 33 32 34 38 40 40 35 24 5 333 303 287 281 281 281 279 276 276 278 280 280 279 279 278 277 277 277
28 30 31 33 34 35 35 36 38 39 40 39 40 42 43 43 43 44 46 49 50 50 47 45 41 35 26 8 343 322 312 304 296 292 291 292 293 290 288 287 285 284 282
30 33 35 36 36 37 38 39 41 42 43 44 45 47 48 48 47 48 49 51 52 51 49 47 45 42 37 29 17 3 350 339 330 320 314 310 307 304 301 298 295 293 290
31 34 35 37 38 39 41 42 44 45 46 48 49 50 50 51 51 52 53 52 52 52 51 49 46 43 39 33 25 17 9 3 356 348 340 332 326 321 316 311 306 303 299
32 34 37 38 40 41 43 44 45 46 47 48 49 49 50 50 51 51 51 51 51 51 49 48 47 45 43 39 36 32 26 19 11 4 357 351 345 340 334 329 323 318 314
31 33 36 38 39 40 42 43 43 44 44 46 47 48 49 49 49 49 49 49 49 48 48 48 47 45 42 40 38 35 31 26 21 15 10 5 0 356 352 348 343 338 334
27 30 33 35 37 38 38 38 39 39 40 41 43 44 46 46 47 47 47 47 46 45 44 44 42 41 40 39 37 35 32 29 26 23 19 16 14 11 7 2 358 354 349
22 26 29 32 34 35 35 34 34 35 35 36 37 39 40 41 42 42 42 41 41 40 40 40 40 39 39 38 37 35 34 32 30 28 26 25 23 20 17 15 12 9 6
13 18 22 25 28 31 31 30 30 30 30 30 31 32 34 36 37 37 37 37 37 36 36 36 36 36 35 34 33 33 32 31 31 30 29 29 27 25 23 22 21 19 18
Height
5789 5791 5792 5794 5795 5796 5796 5797 5797 5797 5797 5797 5797 5796 5795 5794 5794 5793 5793 5792 5792 5792 5792 5792 5792 5791 5791 5791 5793 5795 5798 5800 5803 5805 5808 5811 5814 5817 5819 5821 5824 5826 5828
5786 5788 5789 5791 5792 5792 5792 5792 5792 5792 5791 5791 5791 5790 5789 5788 5788 5787 5787 5786 5786 5786 5786 5786 5787 5787 5787 5787 5788 5789 5791 5794 5796 5799 5801 5805 5808 5811 5814 5816 5819 5821 5823
5785 5786 5787 5788 5788 5788 5787 5787 5787 5786 5785 5785 5784 5784 5783 5782 5782 5781 5780 5780 5780 5780 5781 5781 5781 5782 5782 5782 5783 5784 5785 5787 5789 5792 5794 5798 5801 5804 5807 5810 5813 5815 5817
5783 5784 5784 5784 5783 5783 5782 5781 5781 5780 5779 5779 5778 5778 5777 5776 5776 5775 5774 5774 5774 5774 5775 5775 5776 5776 5777 5778 5778 5779 5780 5781 5783 5785 5788 5791 5794 5797 5800 5803 5806 5809 5811
5780 5781 5780 5780 5779 5778 5777 5776 5775 5774 5773 5773 5773 5772 5771 5770 5770 5769 5769 5769 5769 5769 5769 5769 5770 5771 5771 5772 5773 5774 5775 5776 5778 5779 5781 5783 5786 5789 5793 5795 5799 5801 5805
5777 5777 5777 5776 5775 5774 5772 5771 5770 5769 5769 5768 5767 5766 5765 5764 5764 5763 5763 5763 5763 5763 5763 5764 5764 5765 5766 5767 5768 5769 5770 5771 5772 5773 5775 5776 5779 5782 5784 5787 5791 5794 5797
5774 5774 5773 5772 5771 5770 5768 5767 5765 5764 5764 5763 5762 5761 5760 5759 5758 5758 5757 5757 5757 5756 5757 5757 5758 5759 5760 5761 5762 5763 5765 5766 5767 5768 5769 5771 5772 5775 5777 5780 5782 5785 5788
5771 5770 5769 5768 5766 5764 5763 5762 5761 5759 5758 5757 5756 5755 5754 5752 5752 5751 5751 5751 5750 5750 5751 5751 5752 5753 5754 5755 5756 5757 5759 5760 5761 5762 5764 5765 5766 5768 5770 5772 5774 5777 5780
5768 5767 5765 5763 5761 5760 5758 5757 5756 5754 5753 5752 5750 5749 5748 5747 5746 5745 5745 5744 5744 5744 5745 5745 5746 5746 5748 5749 5750 5751 5752 5754 5755 5756 5757 5759 5760 5761 5763 5765 5767 5769 5771
5765 5763 5761 5759 5757 5755 5754 5752 5750 5749 5747 5746 5744 5743 5742 5741 5740 5739 5738 5738 5738 5738 5738 5739 5739 5740 5741 5742 5744 5745 5746 5748 5749 5750 5751 5752 5753 5755 5756 5758 5759 5761 5762
5761 5759 5756 5754 5752 5750 5748 5746 5745 5743 5741 5740 5738 5737 5736 5734 5733 5732 5732 5731 5731 5731 5732 5732 5733 5734 5735 5736 5738 5739 5740 5741 5742 5743 5744 5745 5747 5748 5749 5750 5751 5752 5754
5758 5755 5752 5750 5747 5745 5743 5741 5739 5737 5736 5734 5732 5731 5729 5728 5727 5726 5725 5725 5725 5725 5725 5726 5726 5727 5729 5730 5731 5732 5734 5735 5736 5737 5738 5739 5740 5741 5742 5743 5744 5744 5746
5754 5751 5748 5745 5743 5741 5739 5737 5734 5732 5730 5729 5727 5725 5724 5722 5721 5720 5719 5719 5718 5718 5719 5719 5720 5721 5722 5724 5725 5726 5727 5728 5729 5730 5731 5732 5733 5734 5735 5735 5736 5737 5738
5752 5749 5746 5743 5740 5738 5735 5733 5731 5729 5726 5724 5723 5721 5719 5717 5716 5714 5713 5713 5712 5712 5713 5714 5715 5716 5717 5718 5719 5720 5721 5722 5723 5724 5725 5725 5726 5727 5727 5728 5728 5729 5730
5751 5748 5745 5741 5739 5736 5734 5731 5729 5726 5724 5722 5720 5718 5716 5714 5712 5710 5709 5708 5707 5708 5708 5709 5709 5711 5712 5712 5714 5715 5716 5716 5717 5718 5718 5719 5719 5720 5720 5720 5721 5721 5721
5752 5748 5745 5742 5739 5736 5733 5731 5728 5726 5723 5721 5718 5716 5714 5712 5710 5708 5706 5705 5704 5705 5705 5705 5705 5706 5707 5708 5709 5710 5710 5711 5712 5712 5713 5713 5713 5713 5713 5713 5713 5713 5713
5753 5750 5747 5744 5740 5737 5734 5732 5729 5727 5724 5721 5719 5716 5714 5712 5710 5708 5706 5705 5704 5703 5703 5703 5703 5703 5704 5704 5705 5706 5706 5706 5707 5707 5707 5707 5707 5707 5707 5706 5706 5705 5705
5756 5753 5750 5746 5743 5740 5737 5734 5731 5729 5726 5723 5721 5718 5716 5714 5712 5709 5707 5706 5705 5704 5704 5703 5703 5702 5702 5703 5703 5703 5703 5703 5703 5702 5702 5702 5701 5700 5700 5699 5698 5697 5696
5759 5756 5753 5750 5747 5744 5741 5738 5735 5732 5729 5726 5724 5721 5719 5717 5715 5712 5710 5709 5707 5706 5706 5705 5704 5703 5703 5702 5702 5702 5701 5700 5699 5699 5698 5697 5696 5695 5693 5692 5691 5689 5688
5763 5760 5757 5754 5751 5747 5744 5742 5739 5736 5733 5730 5728 5725 5723 5721 5719 5717 5714 5712 5711 5709 5708 5707 5706 5705 5704 5703 5702 5701 5700 5699 5697 5696 5695 5693 5692 5690 5688 5686 5684 5681 5679
5766 5763 5760 5757 5754 5751 5748 5746 5743 5740 5738 5735 5732 5730 5728 5725 5723 5721 5719 5717 5715 5713 5712 5710 5708 5707 5706 5704 5703 5701 5700 5698 5696 5694 5692 5690 5688 5686 5683 5680 5677 5674 5672
5769 5767 5764 5761 5758 5756 5753 5750 5747 5745 5742 5740 5737 5735 5732 5730 5728 5726 5724 5722 5719 5717 5715 5713 5712 5710 5708 5706 5704 5702 5700 5698 5696 5693 5691 5688 5685 5682 5679 5675 5672 5668 5665
5772 5770 5767 5764 5762 5759 5757 5754 5752 5749 5747 5744 5742 5739 5737 5734 5732 5730 5728 5726 5724 5722 5719 5717 5715 5713 5711 5709 5706 5704 5702 5699 5696 5693 5690 5687 5683 5680 5676 5672 5668 5664 5660
5774 5772 5770 5767 5765 5763 5760 5758 5755 5753 5751 5748 5746 5743 5741 5739 5736 5734 5732 5730 5728 5726 5723 5721 5719 5717 5714 5712 5709 5706 5703 5701 5697 5694 5691 5687 5683 5679 5675 5671 5667 5662 5657
5776 5774 5772 5769 5767 5765 5763 5761 5759 5756 5754 5752 5749 5747 5745 5742 5740 5738 5736 5734 5732 5729 5727 5725 5722 5720 5717 5714 5712 5709 5706 5703 5699 5696 5692 5688 5684 5680 5675 5671 5666 5661 5656
5777 5775 5773 5771 5769 5767 5765 5763 5761 5759 5757 5755 5752 5750 5748 5745 5743 5741 5739 5737 5735 5732 5730 5728 5725 5722 5720 5717 5714 5711 5708 5705 5701 5698 5694 5690 5685 5681 5676 5672 5667 5662 5656